Regional Weather Roundup
Issued by NWS Northern Indiana

Home | Current Version | Previous Version | Text Only | Print | Product List | Glossary Off
Versions: 1 2 3 4 5 6 7 8 9 10 11 12 13 14 15 16 17 18 19 20 21 22 23 24 25 26 27 28 29 30 31 32 33 34 35 36 37 38 39 40 41 42 43 44 45 46 47 48 49 50

000
ASUS43 KIWX 222310
RWRIWX

KIWX WEATHER ROUNDUP
NATIONAL WEATHER SERVICE NORTHERN INDIANA
700 PM EDT MON SEP 22 2014

NOTE: "FAIR" INDICATES FEW OR NO CLOUDS BELOW 12,000 FEET WITH NO
SIGNIFICANT WEATHER AND/OR OBSTRUCTIONS TO VISIBILITY.

* THESE STATIONS ARE NOT UNDER NWS QUALITY CONTROL. THEY ALSO MAY NOT
  REPORT WEATHER SUCH AS PRECIPITATION OR FOG.

INZ001>027-230000-
NORTHERN INDIANA

CITY           SKY/WX    TMP DP  RH WIND       PRES   REMARKS
GARY*          CLEAR     63  43  48 NE7       30.24F
VALPARAISO     CLEAR     59  45  59 NE3       30.25S
MICHIGAN CITY* CLEAR     55  43  62 CALM      30.26S
LAPORTE*       CLEAR     57  44  60 N6        30.26S
KNOX*          CLEAR     60  44  56 N7        30.24S
SOUTH BEND     CLEAR     59  45  59 NW9       30.25R
ELKHART*       CLEAR     59  43  55 NW6       30.25R
GOSHEN         CLEAR    N/A N/A N/A N12       30.23R
MONTICELLO*    CLEAR     63  47  56 NW6       30.23R
LOGANSPORT*    CLEAR     61  45  55 CALM      30.24S
ROCHESTER*     CLEAR     63  45  51 NW8       30.24R
WARSAW*        CLEAR     61  45  55 N5        30.23R
ANGOLA*        CLEAR     61  45  55 NW6       30.22R
FORT WAYNE     CLEAR     62  45  53 W5        30.23R
HUNTINGTON*    CLEAR     61  44  54 CALM      30.22S
PERU/GRISSOM   CLEAR     63  47  54 NW6       30.23S
MARION*        CLEAR     63  39  42 CALM      30.24R

$$
INZ028>050-230000-
CENTRAL INDIANA

CITY           SKY/WX    TMP DP  RH WIND       PRES   REMARKS
LAFAYETTE      CLEAR     65  47  52 CALM      30.23S
KOKOMO*        CLEAR     64  43  45 N6        30.23S
MUNCIE*        CLEAR     62  44  51 NW3       30.23R
INDIANAPOLIS   CLEAR     64  42  44 N8        30.23R

$$
MIZ043>046-050>051-056>058-064>065-071>073-077>080-230000-
SOUTHWEST LOWER MICHIGAN

CITY           SKY/WX    TMP DP  RH WIND       PRES   REMARKS
BATTLE CREEK   CLEAR     59  44  57 VRB7      30.22S
BENTON HARBOR  CLEAR     56  45  66 W5        30.24S
COLDWATER*     PTCLDY    62  45  54 W8        30.21S
HILLSDALE*     CLEAR     60  42  52 NW6       30.21S
HOLLAND        CLEAR     59  47  64 W3        30.23F
GRAND RAPIDS   PTCLDY    59  47  64 W9        30.22S
KALAMAZOO      CLEAR     59  43  55 NW12      30.23S
STURGIS*       CLEAR     59  45  58 NW8       30.22R
THREE RIVERS*  FAIR      59  46  60 NW8       30.23S

$$
OHZ001>008-015>018-024>025-230000-
NORTHWEST OHIO

CITY           SKY/WX    TMP DP  RH WIND       PRES   REMARKS
WAUSEON*       FAIR      61  43  51 NW5       30.20S
DEFIANCE       CLEAR    N/A N/A N/A VRB3      30.21S
FINDLAY        CLEAR     63  40  42 W8        30.20R
TOLEDO EXPRESS CLEAR     62  40  44 NW3       30.20S
TOLEDO METCALF CLEAR     61  43  51 NW6       30.20S
LIMA           CLEAR     61  45  55 NW5       30.22R

$$
AND FOR LAKE MICHIGAN COASTAL AND OPEN LAKE BUOY OBSERVATIONS

STATION/POSITION TEMP    WIND        PRES    VSBY  WAVE
                 AIR SEA DIR/SP/G                  HT/PER
                 (F)     (DEG/KT/KT) (MB)    (MI)  (FT/S)
CALUMET HARBOR    59     110/  5/  7 1022.6F
SAINT JOSEPH      63        CALM     1025.1R
SOUTH LAKE BUOY   59 62  190/  8/ 10 1023.6F         2/ 6
4 MI NW BRIDGMAN  58 65  230/  4/  6   N/A           2/ 5
MICHIGAN CITY     58 64  110/  4/  6   N/A           3/ 6
SAINT JOSEPH CG                      1024.3      6   1

$$
&&


USA.gov is the U.S. government's official web portal to all federal, state and local government web resources and services.